Terug naar catalogus

CZ-4 DEB

ActiefSSO
NORAD 29042·DEBRIS·🇨🇳 China

Gelanceerd Sep 8, 2004 vanaf Taiyuan Satellite Launch Center

Loading…

Volgende Passages (komende 24 uur)

TLE

VerouderendSource: Space-Track

Epoch: Sep 6, 2026, 06:28 UTC

1 29042U 04035J   26249.26981304  .00001418  00000-0  89905-4 0  9994
2 29042  97.5382 261.6004 0012242  82.1963 278.0656 15.10465277723781

Volg CZ-4 DEB in realtime met AllMySat

Download on the App Store